Station OSGN6 - 9052030 - Oswego, NY Image indicating link to RSS feed of recent meteorological observations for station OSGN6


Conditions at OSGN6 as of
(12:54 pm EDT)
1654 GMT on 05/28/2024:
     

Click on the graph icon in the table below to see a time series plot of the last five days of that observation.

5-day plot - Wind Direction Wind Direction (WDIR): W ( 270 deg true )
5-day plot - Wind Speed Wind Speed (WSPD): 19.0 kts
5-day plot - Wind Gust Wind Gust (GST): 22.0 kts
5-day plot - Atmospheric Pressure Atmospheric Pressure (PRES):29.70 in
5-day plot - Air Temperature Air Temperature (ATMP): 61.7 °F
5-day plot - Dew Point Dew Point (DEWP): 56.7 °F
5-day plot - Wind Speed at 10 Meters Wind Speed at 10 meters (WSPD10M): 17.5 kts
5-day plot - Wind Speed at 20 Meters Wind Speed at 20 meters (WSPD20M): 19.4 kts
5-day plot -  Wind Speed, Wind Gust and Atmospheric Pressure Combined plot of Wind Speed, Gust, and Air Pressure
NOS Water Level Observation Network Water Level
Previous observations
TIME
(EDT)
5-day plot - Wind Direction
WDIR
 
5-day plot - Wind Speed
WSPD
kts
5-day plot - Wind Gust
GST
kts
5-day plot - Wave Height
WVHT
ft
5-day plot - Dominant Wave Period
DPD
sec
5-day plot - Average Wave Period
APD
sec
5-day plot - Mean Wave Direction
MWD
 
5-day plot - Atmospheric Pressure
PRES
in
5-day plot - Pressure Tendency
PTDY
in
5-day plot - Air Temperature
ATMP
°F
5-day plot - Water Temperature
WTMP
°F
5-day plot - Dew Point
DEWP
°F
5-day plot - Salinity
SAL
psu
5-day plot - Visibility
VIS
nmi
5-day plot - Tide (above MLLW)
TIDE
ft
2024-05-28 12:48 pm W 19.0 22.0----29.70- 61.3- 56.1---
2024-05-28 12:42 pm W 17.1 22.0----29.70- 61.7- 56.7---
2024-05-28 12:36 pm W 15.0 20.0----29.70- 61.9- 57.0---
2024-05-28 12:30 pm W 17.1 21.0----29.69- 61.5- 56.7---
2024-05-28 12:24 pm W 19.0 22.9----29.69- 61.3- 56.5---
2024-05-28 12:18 pm W 18.1 22.9----29.70- 61.5- 56.7---
2024-05-28 12:12 pm W 19.0 22.9----29.70- 61.7- 56.7---
2024-05-28 12:06 pm W 17.1 22.0----29.69- 61.9- 57.2---
2024-05-28 12:00 pm W 17.1 20.0----29.69+0.03 61.3- 57.0---
2024-05-28 11:54 am W 17.1 20.0----29.69- 61.5- 57.0---
2024-05-28 11:48 am W 15.0 18.1----29.69- 61.7- 57.0---
2024-05-28 11:42 am W 15.0 18.1----29.69- 61.7- 57.0---
2024-05-28 11:36 am W 15.9 22.0----29.69- 61.9- 57.2---
2024-05-28 11:30 am W 15.0 21.0----29.69- 61.7- 57.4---
2024-05-28 11:24 am W 15.0 21.0----29.69- 61.5- 57.2---
2024-05-28 11:18 am W 13.0 19.0----29.69- 62.2- 58.1---
2024-05-28 11:12 am W 14.0 18.1----29.69- 61.7- 57.6---
2024-05-28 11:06 am W 14.0 18.1----29.69- 61.7- 57.6---
2024-05-28 11:00 am W 14.0 18.1----29.68+0.03 61.9- 57.9---
2024-05-28 10:54 am W 14.0 18.1----29.68- 61.7- 57.7---
2024-05-28 10:48 am W 12.0 18.1----29.68- 61.9- 57.9---
2024-05-28 10:42 am W 13.0 19.0----29.68- 61.7- 57.9---
2024-05-28 10:36 am W 12.0 19.0----29.68- 61.7- 58.1---
2024-05-28 10:30 am W 14.0 18.1----29.68- 61.5- 57.9---
2024-05-28 10:24 am W 15.0 20.0----29.68- 61.5- 58.1---
2024-05-28 10:18 am W 12.0 17.1----29.68- 61.5- 58.3---
2024-05-28 10:12 am W 12.0 17.1----29.68- 61.3- 58.3---
2024-05-28 10:06 am W 12.0 18.1----29.67- 61.3- 58.3---
2024-05-28 10:00 amWSW 12.0 17.1----29.67+0.03 61.2- 58.1---
2024-05-28 09:54 amWSW 13.0 17.1----29.67- 61.0- 57.9---
2024-05-28 09:48 amWSW 11.1 13.0----29.67- 61.2- 58.3---
2024-05-28 09:42 amWSW 11.1 17.1----29.67- 60.6- 57.9---
2024-05-28 09:36 am W 13.0 15.9----29.67- 60.6- 57.9---
2024-05-28 09:30 am W 8.9 14.0----29.67- 61.2- 58.6---
2024-05-28 09:24 amWSW 9.9 15.0----29.67- 60.6- 58.3---
2024-05-28 09:18 amWSW 8.9 14.0----29.67- 60.6- 58.5---
2024-05-28 09:12 amWSW 9.9 15.0----29.67- 60.1- 58.1---
2024-05-28 09:06 am SW 8.9 13.0----29.66- 60.1- 58.5---
2024-05-28 09:00 am W 8.9 14.0----29.66+0.04 60.1- 58.8---
2024-05-28 08:54 amWSW 6.0 8.9----29.66- 60.1- 59.0---
2024-05-28 08:48 amWSW 6.0 9.9----29.66- 59.7- 58.8---
2024-05-28 08:42 amWSW 5.1 11.1----29.66- 59.7- 59.0---
2024-05-28 08:36 amWSW 7.0 11.1----29.66- 59.0- 58.3---
2024-05-28 08:30 am W 9.9 12.0----29.66- 58.8- 58.1---
2024-05-28 08:24 am W 7.0 9.9----29.66- 58.8- 58.3---
2024-05-28 08:18 am W 7.0 11.1----29.66- 58.6- 57.9---
2024-05-28 08:12 am W 6.0 12.0----29.66- 58.6- 57.9---
2024-05-28 08:06 am W 9.9 15.0----29.66- 59.0- 58.1---
2024-05-28 08:00 am W 11.1 13.0----29.66+0.04 58.8- 57.9---
2024-05-28 07:54 am W 11.1 13.0----29.65- 58.8- 57.7---
2024-05-28 07:48 am W 11.1 13.0----29.65- 58.6- 57.7---
2024-05-28 07:42 am W 9.9 12.0----29.65- 58.8- 57.7---
2024-05-28 07:36 am W 9.9 12.0----29.65- 59.0- 57.9---
2024-05-28 07:30 am W 11.1 12.0----29.65- 59.0- 57.7---
2024-05-28 07:24 am W 12.0 13.0----29.64- 59.0- 57.6---
2024-05-28 07:18 am W 11.1 15.0----29.64- 59.2- 57.7---
2024-05-28 07:12 am W 12.0 15.0----29.64- 59.0- 57.2---
2024-05-28 07:06 am W 11.1 15.0----29.64- 59.2- 57.2---
2024-05-28 07:00 am W 13.0 17.1----29.64+0.04 59.4- 56.8---
2024-05-28 06:54 am W 9.9 14.0----29.64- 60.4- 56.7---
2024-05-28 06:48 am W 2.9 7.0----29.63- 61.2- 56.8---
2024-05-28 06:42 amSSW 5.1 8.0----29.63- 61.3- 56.5---
2024-05-28 06:36 am S 6.0 8.0----29.63- 61.7- 56.7---
2024-05-28 06:30 am S 6.0 8.0----29.63- 61.7- 56.7---
2024-05-28 06:24 amSSW 6.0 8.9----29.62- 61.7- 56.7---
2024-05-28 06:18 amSSW 6.0 12.0----29.62- 61.5- 56.8---
2024-05-28 06:12 amSSW 6.0 8.9----29.62- 61.3- 56.8---
2024-05-28 06:06 am SW 5.1 8.9----29.62- 61.3- 57.0---
2024-05-28 06:00 am SW 8.0 12.0----29.62+0.03 61.0- 56.7---
2024-05-28 05:54 am SW 9.9 13.0----29.62- 61.2- 56.7---
2024-05-28 05:48 am SW 8.9 12.0----29.62- 61.0- 56.7---
2024-05-28 05:42 am SW 11.1 15.9----29.62- 60.8- 56.5---
2024-05-28 05:36 amWSW 9.9 18.1----29.62- 60.8- 56.3---
2024-05-28 05:30 amWSW 8.9 17.1----29.62- 61.3- 56.5---
2024-05-28 05:24 amWSW 13.0 19.0----29.62- 61.5- 56.1---
2024-05-28 05:18 amWSW 12.0 18.1----29.62- 61.7- 56.1---
2024-05-28 05:12 amWSW 11.1 19.0----29.62- 61.9- 55.9---
2024-05-28 05:06 amWSW 15.0 22.0----29.62- 62.4- 55.6---
2024-05-28 05:00 amWSW 13.0 22.0----29.61+0.02 62.6- 55.2---
2024-05-28 04:54 amWSW 14.0 19.0----29.61- 63.9- 55.2---
2024-05-28 04:48 am SW 13.0 17.1----29.61- 64.0- 55.0---
2024-05-28 04:42 am SW 11.1 14.0----29.61- 64.0- 55.2---
2024-05-28 04:36 am SW 11.1 15.0----29.60- 64.0- 55.9---
2024-05-28 04:30 am W 9.9 15.0----29.60- 63.0- 56.5---
2024-05-28 04:24 amWSW 9.9 14.0----29.60- 64.2- 55.4---
2024-05-28 04:18 am SW 11.1 15.9----29.60- 64.4- 55.0---
2024-05-28 04:12 amWSW 7.0 15.0----29.60- 64.4- 55.0---
2024-05-28 04:06 amWSW 8.0 14.0----29.60- 64.6- 55.2---
2024-05-28 04:00 amSSW 8.0 13.0----29.60+0.00 64.4- 54.7---
2024-05-28 03:54 am SW 7.0 9.9----29.60- 64.4- 54.9---
2024-05-28 03:48 amSSW 8.9 12.0----29.60- 64.4- 54.7---
2024-05-28 03:42 am SW 8.0 12.0----29.60- 64.6- 54.9---
2024-05-28 03:36 am SW 9.9 15.0----29.59- 64.6- 54.9---
2024-05-28 03:30 amSSW 9.9 18.1----29.59- 64.6- 54.9---
2024-05-28 03:24 am SW 9.9 19.0----29.59- 64.6- 54.9---
2024-05-28 03:18 am SW 7.0 12.0----29.59- 64.4- 55.2---
2024-05-28 03:12 am SW 6.0 12.0----29.59- 64.2- 55.0---
2024-05-28 03:06 amSSW 6.0 11.1----29.59- 63.9- 54.9---
2024-05-28 03:00 amSSW 8.0 9.9----29.59-0.01 63.9- 55.0---
2024-05-28 02:54 amSSW 8.0 11.1----29.59- 63.9- 55.0---
2024-05-28 02:48 am S 7.0 8.9----29.59- 63.7- 55.2---
2024-05-28 02:42 am S 7.0 9.9----29.59- 63.7- 55.6---
2024-05-28 02:36 am S 8.0 8.9----29.59- 63.9- 55.6---
2024-05-28 02:30 am S 7.0 8.9----29.59- 63.9- 55.4---
2024-05-28 02:24 am S 6.0 7.0----29.59- 63.7- 55.4---
2024-05-28 02:18 am S 6.0 8.0----29.60- 63.7- 55.4---
2024-05-28 02:12 am S 6.0 8.0----29.60- 63.7- 55.4---
2024-05-28 02:06 am S 6.0 8.0----29.60- 63.7- 55.4---
2024-05-28 02:00 am S 6.0 8.0----29.59+0.01 63.9- 55.4---
2024-05-28 01:54 am S 7.0 9.9----29.59- 63.9- 55.4---
2024-05-28 01:48 am S 7.0 9.9----29.59- 63.9- 55.2---
2024-05-28 01:42 am S 7.0 8.9----29.59- 63.9- 55.0---
2024-05-28 01:36 am S 7.0 8.9----29.59- 64.2- 55.4---
2024-05-28 01:30 am S 7.0 8.9----29.59- 64.2- 55.4---
2024-05-28 01:24 am S 8.0 11.1----29.59- 64.4- 55.4---
2024-05-28 01:18 amSSW 8.0 11.1----29.59- 64.6- 55.4---
2024-05-28 01:12 amSSW 7.0 8.9----29.59- 64.4- 55.2---
2024-05-28 01:06 amSSW 7.0 9.9----29.59- 64.6- 55.2---
2024-05-28 01:00 amSSW 7.0 11.1----29.59+0.02 64.6- 55.2---
2024-05-28 12:54 amSSW 8.9 12.0----29.59- 64.8- 55.2---
2024-05-28 12:48 amSSW 7.0 11.1----29.59- 64.6- 55.0---
2024-05-28 12:42 am S 8.0 9.9----29.59- 64.8- 55.2---
2024-05-28 12:36 am S 6.0 12.0----29.59- 64.9- 55.4---
2024-05-28 12:30 am S 7.0 13.0----29.59- 65.1- 55.2---
2024-05-28 12:24 amSSW 8.9 13.0----29.59- 65.3- 55.0---
2024-05-28 12:18 amSSW 9.9 14.0----29.59- 65.3- 55.0---
2024-05-28 12:12 am SW 9.9 14.0----29.59- 65.3- 55.0---
2024-05-28 12:06 am SW 11.1 19.0----29.60- 65.5- 55.2---
2024-05-28 12:00 am SW 12.0 20.0----29.60+0.06 65.7- 55.2---
2024-05-27 11:54 pm SW 9.9 17.1----29.60- 65.8- 55.4---
2024-05-27 11:48 pm SW 11.1 20.0----29.60- 66.0- 55.4---
2024-05-27 11:42 pm SW 15.9 20.0----29.60- 66.2- 55.2---
2024-05-27 11:36 pmWSW 12.0 17.1----29.60- 66.4- 55.4---
2024-05-27 11:30 pm SW 14.0 20.0----29.60- 66.4- 54.9---
2024-05-27 11:24 pm SW 11.1 17.1----29.59- 66.7- 55.0---
2024-05-27 11:18 pm SW 11.1 17.1----29.59- 66.9- 55.0---
2024-05-27 11:12 pm SW 8.0 18.1----29.59- 66.9- 55.0---
2024-05-27 11:06 pm SW 13.0 19.0----29.59- 67.3- 54.9---
2024-05-27 11:00 pmWSW 13.0 21.0----29.59+0.08 67.3- 55.0---
2024-05-27 10:54 pm SW 12.0 22.0----29.58- 67.6- 55.0---
2024-05-27 10:48 pm SW 13.0 19.0----29.58- 67.8- 55.6---
2024-05-27 10:42 pm SW 11.1 19.0----29.58- 67.5- 55.6---
2024-05-27 10:36 pmWSW 15.0 22.9----29.57- 67.8- 55.4---
2024-05-27 10:30 pmWSW 13.0 19.0----29.57- 67.8- 55.6---
2024-05-27 10:24 pmWSW 17.1 24.1----29.57- 68.2- 55.9---
2024-05-27 10:18 pmWSW 12.0 18.1----29.57- 68.0- 56.3---
2024-05-27 10:12 pmWSW 9.9 20.0----29.57- 67.6- 56.8---
2024-05-27 10:06 pmWSW 14.0 19.0----29.57- 68.0- 56.8---
2024-05-27 10:00 pm W 12.0 18.1----29.57+0.07 67.8- 57.4---
2024-05-27 09:54 pmWSW 13.0 19.0----29.57- 68.2- 57.6---
2024-05-27 09:48 pmWSW 12.0 20.0----29.57- 68.7- 57.7---
2024-05-27 09:42 pmWSW 12.0 19.0----29.57- 69.1- 58.1---
2024-05-27 09:36 pmWSW 13.0 19.0----29.57- 69.1- 58.1---
2024-05-27 09:30 pmWSW 13.0 21.0----29.56- 68.9- 58.1---
2024-05-27 09:24 pmWSW 15.0 21.0----29.56- 68.9- 58.1---
2024-05-27 09:18 pmWSW 15.9 22.9----29.55- 68.9- 58.3---
2024-05-27 09:12 pmWSW 14.0 22.0----29.55- 68.7- 58.8---
2024-05-27 09:06 pmWSW 13.0 18.1----29.55- 68.2- 59.4---
2024-05-27 09:00 pmWSW 14.0 21.0----29.54- 67.6- 59.4---
2024-05-27 08:54 pm SW 12.0 19.0----29.54- 67.8- 59.7---
2024-05-27 08:48 pmWSW 13.0 19.0----29.54- 68.5- 60.1---
2024-05-27 08:42 pmWSW 14.0 20.0----29.54- 69.1- 60.6---
2024-05-27 08:36 pm W 12.0 17.1----29.54- 69.1- 61.2---
2024-05-27 08:30 pm W 13.0 15.9----29.54- 68.5- 62.1---
2024-05-27 08:24 pm W 8.0 9.9----29.53- 67.6- 62.4---
2024-05-27 08:18 pm W 5.1 6.0----29.52- 67.8- 63.1---
2024-05-27 08:12 pm W 6.0 7.0----29.52- 68.0- 63.0---
2024-05-27 08:06 pm W 5.1 7.0----29.51- 68.9- 63.0---
2024-05-27 08:00 pmSSW 5.1 6.0----29.51+0.03 73.0- 65.7---
2024-05-27 07:54 pm S 5.1 7.0----29.51- 73.9- 66.2---
2024-05-27 07:48 pm S 5.1 7.0----29.51-------
2024-05-27 07:42 pm S 5.1 7.0----29.51-------
2024-05-27 07:36 pm S 6.0 8.9----29.51-------
2024-05-27 07:30 pm S 6.0 7.0----29.50- 73.9- 65.8---
2024-05-27 07:24 pm S 6.0 7.0----29.49- 73.9- 65.8---
2024-05-27 07:18 pm S 5.1 7.0----29.49- 73.6- 66.0---
2024-05-27 07:12 pm S 6.0 7.0----29.50- 73.2- 66.0---
2024-05-27 07:06 pm S 5.1 7.0----29.49- 73.0- 66.4---
2024-05-27 07:00 pm S 5.1 7.0----29.50+0.02 72.9- 66.4---
2024-05-27 06:54 pm S 4.1 5.1----29.50- 72.3- 66.2---
2024-05-27 06:48 pm S 4.1 6.0----29.50- 72.0- 66.2---
2024-05-27 06:42 pm S 6.0 7.0----29.50- 71.4- 65.8---
2024-05-27 06:36 pm S 5.1 7.0----29.50- 71.2- 65.8---
2024-05-27 06:30 pmSSE 4.1 7.0----29.49- 71.4- 65.8---
2024-05-27 06:24 pmSSE 4.1 6.0----29.50- 71.1- 65.7---
2024-05-27 06:18 pm S 5.1 7.0----29.50- 70.7- 65.7---
2024-05-27 06:12 pm S 7.0 8.9----29.50- 70.2- 65.1---
2024-05-27 06:06 pm S 7.0 9.9----29.50- 70.3- 65.3---
2024-05-27 06:00 pm--------- 70.7- 65.7---
2024-05-27 05:54 pm--------- 70.3- 65.3---
2024-05-27 05:48 pmSSE 7.0 8.9----29.49- 71.1- 65.8---
2024-05-27 05:42 pm S 6.0 8.9----29.48- 71.4- 66.2---
2024-05-27 05:36 pm S 7.0 15.0----29.48- 71.2- 66.0---
2024-05-27 05:30 pm S 9.9 14.0----29.48-------
2024-05-27 05:24 pm S 11.1 15.0----29.49-------
2024-05-27 05:18 pmSSW 9.9 13.0----29.49- 71.8- 66.4---
2024-05-27 05:12 pmSSW 8.9 13.0----29.49- 72.3- 66.0---
2024-05-27 05:06 pm S 8.9 15.9----29.48- 73.4- 66.0---
2024-05-27 05:00 pm S 13.0 18.1----29.48-0.06 74.1- 65.7---
2024-05-27 04:54 pm S 14.0 20.0----29.47- 74.5- 65.8---
2024-05-27 04:48 pm S 12.0 21.0----29.47- 74.7- 65.8---
2024-05-27 04:42 pm S 14.0 19.0----29.47- 74.7- 65.7---
2024-05-27 04:36 pm S 12.0 17.1----29.47- 74.8- 66.2---
2024-05-27 04:30 pm-------29.47- 74.3- 66.0---
2024-05-27 04:24 pm-------29.47- 74.3- 66.0---
2024-05-27 04:18 pmSSE 13.0 21.0----29.47- 74.3- 66.2---
2024-05-27 04:12 pm S 17.1 22.0----29.48- 74.1- 66.2---
2024-05-27 04:06 pm S 15.0 21.0----29.48- 74.1- 66.2---
2024-05-27 04:00 pmSSE 12.0 15.9----29.48-0.07 74.1- 66.9---
2024-05-27 03:54 pm S 9.9 17.1----29.48- 73.6- 67.1---
2024-05-27 03:48 pm S 12.0 18.1------ 72.9- 66.7---
2024-05-27 03:42 pm S 9.9 19.0------ 72.5- 66.7---
2024-05-27 03:36 pm S 15.0 20.0------ 72.0- 66.4---
2024-05-27 03:30 pm S 12.0 18.1----29.49- 71.8- 66.7---
2024-05-27 03:24 pm S 12.0 17.1----29.49- 71.6- 67.1---
2024-05-27 03:18 pmSSE 11.1 17.1----29.49- 71.2- 67.1---
2024-05-27 03:12 pmSSE 11.1 17.1----29.49- 71.1- 67.1---
2024-05-27 03:06 pmSSE 8.9 15.9----29.49- 70.9- 67.3---
2024-05-27 03:00 pmSSE 9.9 14.0----29.50-0.04 70.7- 67.3---
2024-05-27 02:54 pmSSE 11.1 15.0----29.50- 70.3- 67.1---
2024-05-27 02:48 pmSSE 9.9 17.1----29.50- 70.0- 67.1---
2024-05-27 02:42 pmSSE 11.1 15.9----29.51- 69.8- 67.1---
2024-05-27 02:36 pmSSE 9.9 14.0----29.52- 69.8- 67.6---
2024-05-27 02:30 pm S 8.0 12.0----29.52- 69.6- 68.4---
2024-05-27 02:24 pm S 8.9 12.0----29.53- 69.3- 68.2---
2024-05-27 02:18 pm S 9.9 11.1----29.53- 69.3- 68.2---
2024-05-27 02:12 pm S 9.9 15.0----29.53- 69.3- 68.2---
2024-05-27 02:06 pm S 9.9 14.0----29.54- 69.3- 67.8---
2024-05-27 02:00 pm S 9.9 14.0----29.54-0.02 69.3- 67.6---
2024-05-27 01:54 pm S 12.0 15.0----29.54- 69.4- 67.5---
2024-05-27 01:48 pm S 9.9 15.0----29.54-------
2024-05-27 01:42 pmSSE 11.1 17.1----29.53-------
2024-05-27 01:36 pmSSE 11.1 15.0----29.53-------
2024-05-27 01:30 pmSSE 7.0 12.0----29.53- 68.2- 65.5---
2024-05-27 01:24 pm S 6.0 9.9----29.55- 69.6- 66.2---
2024-05-27 01:18 pmSSE 5.1 8.9----29.54- 70.0- 65.8---
2024-05-27 01:12 pmSSE 6.0 12.0----29.54- 70.3- 65.5---
2024-05-27 01:06 pmSSE 8.0 9.9----29.54- 70.9- 65.3---
2024-05-27 01:00 pmSSE 6.0 9.9----29.55-0.02 71.1- 65.1---
2024-05-27 12:54 pmSSE 8.0 13.0----29.55- 71.4- 65.1---